Printer-friendly version

IAU Minor Planet Center

Minor Planet Center

MPEC 2009-M03 : 2009 LV2

The following Minor Planet Electronic Circular may be linked-to from your own Web pages, but must not otherwise be redistributed electronically.


Read MPEC 2009-M02 Read MPEC 2009-M04


M.P.E.C. 2009-M03                                Issued 2009 June 16, 15:40 UT

     The Minor Planet Electronic Circulars contain information on unusual
         minor planets and routine data on comets.  They are published
   on behalf of Commission 20 of the International Astronomical Union by the
          Minor Planet Center, Smithsonian Astrophysical Observatory,
                          Cambridge, MA 02138, U.S.A.

             Prepared using the Tamkin Foundation Computer Network

                              MPC@CFA.HARVARD.EDU
          URL http://www.cfa.harvard.edu/iau/mpc.html  ISSN 1523-6714

                                   2009 LV2

Observations:
     K09L02V* C2009 06 15.31255 16 49 58.08 +23 06 42.4          20.5 V EM003G96
     K09L02V  C2009 06 15.32095 16 49 54.87 +23 08 29.5          20.2 V EM003G96
     K09L02V  C2009 06 15.32938 16 49 51.63 +23 10 17.5          20.5 V EM003G96
     K09L02V  C2009 06 15.33798 16 49 48.28 +23 12 07.8          20.6 V EM003G96
     K09L02V  C2009 06 15.38999 16 49 28.25 +23 23 13.1                 EM003G96
     K09L02V  C2009 06 15.39058 16 49 28.02 +23 23 20.9                 EM003G96
     K09L02V  C2009 06 15.39110 16 49 27.77 +23 23 27.4                 EM003G96
     K09L02V  C2009 06 15.98163 16 45 46.59 +25 30 25.9                 EM003J95
     K09L02V  C2009 06 15.98954 16 45 43.38 +25 32 09.7                 EM003J95
     K09L02V  C2009 06 15.99969 16 45 39.35 +25 34 20.9          20.6 R EM003J95
     K09L02V tC2009 06 16.21880 16 44 15.17 +26 22 09.6          20.5 V EM003291
     K09L02V tC2009 06 16.22295 16 44 13.50 +26 23 00.0          20.4 V EM003291
     K09L02V tC2009 06 16.22703 16 44 11.75 +26 23 54.4          20.0 V EM003291

Observer details:
291 LPL/Spacewatch II.  Observer T. H. Bressi.  1.8-m f/2.7 reflector + CCD.
G96 Mt. Lemmon Survey.  Observer R. A. Kowalski.  Measurers E. C. Beshore,
    A. Boattini, G. J. Garradd, A. R. Gibbs, A. D. Grauer, R. E. Hill,
    R. A. Kowalski, S. M. Larson, R. H. McNaught.  1.5-m reflector + CCD.
J95 Great Shefford.  Observer P. Birtwhistle.  0.40-m f/6.0 Schmidt-Cassegrain
    + CCD.

Orbital elements:
2009 LV2                                                 Earth MOID = 0.1595 AU
Epoch 2009 June 18.0 TT = JDT 2455000.5                 MPC
M 325.68692              (2000.0)            P               Q
n   0.54596635     Peri.  119.38079     +0.91227418     -0.10397049
a   1.4826050      Node   249.08548     +0.01501434     +0.97508354
e   0.5892629      Incl.   25.09413     +0.40930475     +0.19596488
P   1.81           H   22.4           G   0.15           U   9
Residuals in seconds of arc
090615 G96  0.0   0.1+    090615 G96  0.1-  0.3+    090616 291  0.1-  2.2+
090615 G96  0.4+  0.4-    090615 G96  0.7-  0.2+    090616 291  0.5+  1.7-
090615 G96  0.6+  0.3-    090615 J95  0.1+  0.6-    090616 291  0.3-  0.6-
090615 G96  0.1+  0.1-    090615 J95  0.3-  0.5+
090615 G96  0.0   0.1+    090615 J95  0.5+  0.0

Ephemeris:
2009 LV2                 a,e,i = 1.48, 0.59, 25                  q = 0.6090
Date    TT    R. A. (2000) Decl.     Delta      r     Elong.  Phase     V
2009 06 08    17 23.94   +00 32.9    0.211    1.211   156.2    19.8    20.4
2009 06 13    17 02.88   +15 08.2    0.180    1.162   141.3    33.2    20.4
2009 06 18    16 31.62   +32 50.8    0.168    1.112   121.0    51.5    20.7
2009 06 23    15 44.05   +49 54.1    0.175    1.061   100.1    70.5    21.2
2009 06 28    14 31.53   +62 20.9    0.198    1.010    82.5    86.3    21.9
2009 07 03    12 52.19   +68 47.8    0.231    0.958    69.0    98.0    22.7
2009 07 08    11 09.77   +70 05.0    0.271    0.907    58.9   106.2    23.3

Sonia Keys                   (C) Copyright 2009 MPC           M.P.E.C. 2009-M03

Read MPEC 2009-M02 Read MPEC 2009-M04

Valid HTML 4.01!